Time,TemperatureF,DewpointF,PressureIn,WindDirection,WindDirectionDegrees,WindSpeedMPH,WindSpeedGustMPH,Humidity,HourlyPrecipIn,Conditions,Clouds,dailyrainin,SoftwareType,DateUTC
2013-08-06 00:01:00,67.0,59.9,30.05,West,281,0.0,0.0,78,0.00,,---,0.00,VWS V14.01,2013-08-06 04:01:00,
2013-08-06 00:02:00,67.0,59.9,30.05,West,281,0.0,0.0,78,0.00,,---,0.00,VWS V14.01,2013-08-06 04:02:00,
2013-08-06 00:07:00,67.3,59.8,30.05,ESE,110,0.0,1.0,77,0.00,,---,0.00,VWS V14.01,2013-08-06 04:07:00,
2013-08-06 00:12:00,67.5,60.0,30.05,ESE,110,0.0,1.0,77,0.00,,---,0.00,VWS V14.01,2013-08-06 04:12:00,
2013-08-06 00:17:00,67.6,60.1,30.05,ESE,110,0.0,1.0,77,0.00,,---,0.00,VWS V14.01,2013-08-06 04:17:00,
2013-08-06 00:23:00,67.9,60.8,30.06,ESE,110,0.0,1.0,78,0.00,,---,0.00,VWS V14.01,2013-08-06 04:23:00,
2013-08-06 00:28:00,68.0,60.5,30.05,ESE,110,0.0,1.0,77,0.00,,---,0.00,VWS V14.01,2013-08-06 04:28:00,
2013-08-06 00:33:00,68.2,60.3,30.06,ESE,110,0.0,0.0,76,0.00,,---,0.00,VWS V14.01,2013-08-06 04:33:00,
2013-08-06 00:38:00,68.3,60.8,30.06,ESE,110,0.0,0.0,77,0.00,,---,0.00,VWS V14.01,2013-08-06 04:38:00,
2013-08-06 00:43:00,68.4,60.5,30.06,ESE,110,0.0,0.0,76,0.00,,---,0.00,VWS V14.01,2013-08-06 04:43:00,
2013-08-06 00:48:00,68.5,60.6,30.05,ESE,110,0.0,0.0,76,0.00,,---,0.00,VWS V14.01,2013-08-06 04:48:00,
2013-08-06 00:53:00,68.6,61.5,30.06,ESE,110,0.0,0.0,78,0.00,,---,0.00,VWS V14.01,2013-08-06 04:53:00,
2013-08-06 00:58:00,68.7,61.6,30.05,ESE,110,0.0,0.0,78,0.00,,---,0.00,VWS V14.01,2013-08-06 04:58:00,
2013-08-06 01:03:00,68.7,61.2,30.05,ESE,110,0.0,0.0,77,0.00,,---,0.00,VWS V14.01,2013-08-06 05:03:00,
2013-08-06 01:08:00,68.7,61.2,30.05,ESE,110,0.0,0.0,77,0.00,,---,0.00,VWS V14.01,2013-08-06 05:08:00,
2013-08-06 01:14:00,68.6,61.5,30.05,ESE,110,0.0,0.0,78,0.00,,---,0.00,VWS V14.01,2013-08-06 05:14:00,
2013-08-06 01:19:00,68.6,61.1,30.04,ESE,110,0.0,0.0,77,0.00,,---,0.00,VWS V14.01,2013-08-06 05:19:00,
2013-08-06 01:24:00,68.6,61.5,30.05,ESE,110,0.0,0.0,78,0.00,,---,0.00,VWS V14.01,2013-08-06 05:24:00,
2013-08-06 01:29:00,68.6,61.8,30.05,ESE,110,0.0,0.0,79,0.00,,---,0.00,VWS V14.01,2013-08-06 05:29:00,
2013-08-06 01:34:00,68.5,61.7,30.05,ESE,110,0.0,0.0,79,0.00,,---,0.00,VWS V14.01,2013-08-06 05:34:00,
2013-08-06 01:39:00,68.3,61.5,30.05,ESE,110,0.0,0.0,79,0.00,,---,0.00,VWS V14.01,2013-08-06 05:39:00,
2013-08-06 01:44:00,68.3,61.5,30.05,ESE,110,0.0,0.0,79,0.00,,---,0.00,VWS V14.01,2013-08-06 05:44:00,
2013-08-06 01:49:00,68.3,61.5,30.05,ESE,110,0.0,0.0,79,0.00,,---,0.00,VWS V14.01,2013-08-06 05:49:00,
2013-08-06 01:54:00,68.4,61.6,30.04,ESE,110,0.0,0.0,79,0.00,,---,0.00,VWS V14.01,2013-08-06 05:54:00,
2013-08-06 02:00:00,68.5,61.4,30.04,ESE,110,0.0,0.0,78,0.00,,---,0.00,VWS V14.01,2013-08-06 06:00:00,
2013-08-06 02:05:00,68.6,62.2,30.04,ESE,110,0.0,0.0,80,0.00,,---,0.00,VWS V14.01,2013-08-06 06:05:00,
2013-08-06 02:10:00,68.6,62.2,30.05,ESE,110,0.0,0.0,80,0.00,,---,0.00,VWS V14.01,2013-08-06 06:10:00,
2013-08-06 02:15:00,68.6,62.2,30.05,ESE,110,0.0,0.0,80,0.00,,---,0.00,VWS V14.01,2013-08-06 06:15:00,
2013-08-06 02:20:00,68.6,61.8,30.05,ESE,110,0.0,0.0,79,0.00,,---,0.00,VWS V14.01,2013-08-06 06:20:00,
2013-08-06 02:25:00,68.5,62.1,30.05,ESE,110,0.0,0.0,80,0.00,,---,0.00,VWS V14.01,2013-08-06 06:25:00,
2013-08-06 02:30:00,68.6,62.5,30.05,ESE,110,0.0,0.0,81,0.00,,---,0.00,VWS V14.01,2013-08-06 06:30:00,
2013-08-06 02:35:00,68.7,62.3,30.05,ESE,110,0.0,0.0,80,0.00,,---,0.00,VWS V14.01,2013-08-06 06:35:00,
2013-08-06 02:40:00,68.7,62.3,30.05,ESE,110,0.0,0.0,80,0.00,,---,0.00,VWS V14.01,2013-08-06 06:40:00,
2013-08-06 02:45:00,68.7,62.3,30.04,ESE,110,0.0,0.0,80,0.00,,---,0.00,VWS V14.01,2013-08-06 06:45:00,
2013-08-06 02:50:00,68.8,62.4,30.04,ESE,110,0.0,0.0,80,0.00,,---,0.00,VWS V14.01,2013-08-06 06:50:00,
2013-08-06 02:55:00,68.8,62.4,30.04,ESE,110,0.0,0.0,80,0.00,,---,0.00,VWS V14.01,2013-08-06 06:55:00,
2013-08-06 03:00:00,68.9,62.5,30.03,ESE,110,0.0,0.0,80,0.00,,---,0.00,VWS V14.01,2013-08-06 07:00:00,
2013-08-06 03:05:00,69.1,62.7,30.04,ESE,110,0.0,0.0,80,0.00,,---,0.00,VWS V14.01,2013-08-06 07:05:00,
2013-08-06 03:10:00,69.2,62.8,30.03,ESE,110,0.0,0.0,80,0.00,,---,0.00,VWS V14.01,2013-08-06 07:10:00,
2013-08-06 03:16:00,69.3,62.9,30.03,ESE,110,0.0,0.0,80,0.00,,---,0.00,VWS V14.01,2013-08-06 07:16:00,
2013-08-06 03:21:00,69.3,62.9,30.03,ESE,110,0.0,0.0,80,0.00,,---,0.00,VWS V14.01,2013-08-06 07:21:00,
2013-08-06 03:26:00,69.3,62.9,30.03,ESE,110,0.0,0.0,80,0.00,,---,0.00,VWS V14.01,2013-08-06 07:26:00,
2013-08-06 03:31:00,69.3,62.9,30.03,ESE,110,0.0,0.0,80,0.00,,---,0.00,VWS V14.01,2013-08-06 07:31:00,
2013-08-06 03:36:00,69.2,62.8,30.03,ESE,110,0.0,0.0,80,0.00,,---,0.00,VWS V14.01,2013-08-06 07:36:00,
2013-08-06 03:41:00,69.1,62.7,30.03,ESE,110,0.0,0.0,80,0.00,,---,0.00,VWS V14.01,2013-08-06 07:41:00,
2013-08-06 03:46:00,69.0,62.6,30.03,ESE,110,0.0,0.0,80,0.00,,---,0.00,VWS V14.01,2013-08-06 07:46:00,
2013-08-06 03:51:00,69.0,62.6,30.03,ESE,110,0.0,0.0,80,0.00,,---,0.00,VWS V14.01,2013-08-06 07:51:00,
2013-08-06 03:56:00,69.0,62.6,30.03,ESE,110,0.0,0.0,80,0.00,,---,0.00,VWS V14.01,2013-08-06 07:56:00,
2013-08-06 04:02:00,69.0,62.9,30.03,ESE,110,0.0,0.0,81,0.00,,---,0.00,VWS V14.01,2013-08-06 08:02:00,
2013-08-06 04:07:00,69.1,63.0,30.03,ESE,110,0.0,0.0,81,0.00,,---,0.00,VWS V14.01,2013-08-06 08:07:00,
2013-08-06 04:12:00,69.1,63.0,30.03,ESE,110,0.0,0.0,81,0.00,,---,0.00,VWS V14.01,2013-08-06 08:12:00,
2013-08-06 04:17:00,69.0,62.9,30.03,ESE,110,0.0,0.0,81,0.00,,---,0.00,VWS V14.01,2013-08-06 08:17:00,
2013-08-06 04:22:00,68.9,63.2,30.03,ESE,110,0.0,0.0,82,0.00,,---,0.00,VWS V14.01,2013-08-06 08:22:00,
2013-08-06 04:27:00,68.9,63.5,30.03,ESE,110,0.0,0.0,83,0.00,,---,0.00,VWS V14.01,2013-08-06 08:27:00,
2013-08-06 04:32:00,68.9,63.5,30.03,ESE,110,0.0,0.0,83,0.00,,---,0.00,VWS V14.01,2013-08-06 08:32:00,
2013-08-06 04:37:00,68.8,63.4,30.03,ESE,110,0.0,0.0,83,0.00,,---,0.00,VWS V14.01,2013-08-06 08:37:00,
2013-08-06 04:42:00,68.7,63.7,30.03,ESE,110,0.0,0.0,84,0.00,,---,0.00,VWS V14.01,2013-08-06 08:42:00,
2013-08-06 04:47:00,68.5,63.5,30.03,ESE,110,0.0,0.0,84,0.00,,---,0.00,VWS V14.01,2013-08-06 08:47:00,
2013-08-06 04:52:00,68.5,63.8,30.03,ESE,110,0.0,0.0,85,0.00,,---,0.00,VWS V14.01,2013-08-06 08:52:00,
2013-08-06 04:58:00,68.5,63.8,30.03,ESE,110,0.0,0.0,85,0.00,,---,0.00,VWS V14.01,2013-08-06 08:58:00,
2013-08-06 05:03:00,68.5,63.8,30.03,ESE,110,0.0,0.0,85,0.00,,---,0.00,VWS V14.01,2013-08-06 09:03:00,
2013-08-06 05:08:00,68.5,63.8,30.03,ESE,110,0.0,0.0,85,0.00,,---,0.00,VWS V14.01,2013-08-06 09:08:00,
2013-08-06 05:13:00,68.5,63.8,30.03,ESE,110,0.0,0.0,85,0.00,,---,0.00,VWS V14.01,2013-08-06 09:13:00,
2013-08-06 05:18:00,68.5,63.8,30.03,ESE,110,0.0,0.0,85,0.00,,---,0.00,VWS V14.01,2013-08-06 09:18:00,
2013-08-06 05:23:00,68.6,63.9,30.03,ESE,109,0.0,0.0,85,0.00,,---,0.00,VWS V14.01,2013-08-06 09:23:00,
2013-08-06 05:28:00,68.7,64.0,30.03,SE,132,0.0,1.0,85,0.00,,---,0.00,VWS V14.01,2013-08-06 09:28:00,
2013-08-06 05:34:00,68.8,64.4,30.03,South,184,1.0,2.0,86,0.00,,---,0.00,VWS V14.01,2013-08-06 09:34:00,
2013-08-06 05:39:00,69.0,64.3,30.03,ESE,106,0.0,2.0,85,0.00,,---,0.00,VWS V14.01,2013-08-06 09:39:00,
2013-08-06 05:44:00,69.1,64.4,30.03,South,183,0.0,2.0,85,0.00,,---,0.00,VWS V14.01,2013-08-06 09:44:00,
2013-08-06 05:49:00,69.2,64.5,30.03,NNW,339,0.0,3.0,85,0.00,,---,0.00,VWS V14.01,2013-08-06 09:49:00,
2013-08-06 05:54:00,69.2,64.5,30.03,NW,315,0.0,3.0,85,0.00,,---,0.00,VWS V14.01,2013-08-06 09:54:00,
2013-08-06 05:59:00,69.2,64.8,30.03,SSW,212,0.0,3.0,86,0.00,,---,0.00,VWS V14.01,2013-08-06 09:59:00,
2013-08-06 06:04:00,69.2,64.8,30.03,West,261,1.0,5.0,86,0.00,,---,0.00,VWS V14.01,2013-08-06 10:04:00,
2013-08-06 06:09:00,69.1,64.7,30.03,WNW,288,0.0,5.0,86,0.00,,---,0.00,VWS V14.01,2013-08-06 10:09:00,
2013-08-06 06:14:00,69.0,65.0,30.03,SE,142,5.0,5.0,87,0.00,,---,0.00,VWS V14.01,2013-08-06 10:14:00,
2013-08-06 06:20:00,68.9,64.6,30.04,SE,131,0.0,5.0,86,0.00,,---,0.00,VWS V14.01,2013-08-06 10:20:00,
2013-08-06 06:25:00,68.9,64.6,30.04,WNW,285,0.0,5.0,86,0.00,,---,0.00,VWS V14.01,2013-08-06 10:25:00,
2013-08-06 06:30:00,68.8,64.1,30.03,ESE,111,0.0,5.0,85,0.00,,---,0.00,VWS V14.01,2013-08-06 10:30:00,
2013-08-06 06:35:00,68.7,63.7,30.04,SSW,201,0.0,1.0,84,0.00,,---,0.00,VWS V14.01,2013-08-06 10:35:00,
2013-08-06 06:40:00,68.7,63.7,30.03,SSW,200,0.0,1.0,84,0.00,,---,0.00,VWS V14.01,2013-08-06 10:40:00,
2013-08-06 06:45:00,68.6,63.6,30.03,West,276,1.0,2.0,84,0.00,,---,0.00,VWS V14.01,2013-08-06 10:45:00,
2013-08-06 06:50:00,68.7,63.7,30.03,West,276,0.0,2.0,84,0.00,,---,0.00,VWS V14.01,2013-08-06 10:50:00,
2013-08-06 06:55:00,68.6,63.6,30.03,West,276,0.0,2.0,84,0.00,,---,0.00,VWS V14.01,2013-08-06 10:55:00,
2013-08-06 07:00:00,68.6,63.6,30.03,West,276,0.0,2.0,84,0.00,,---,0.00,VWS V14.01,2013-08-06 11:00:00,
2013-08-06 07:05:00,68.6,63.6,30.03,West,276,0.0,0.0,84,0.00,,---,0.00,VWS V14.01,2013-08-06 11:05:00,
2013-08-06 07:10:00,68.5,63.5,30.04,West,276,0.0,1.0,84,0.00,,---,0.00,VWS V14.01,2013-08-06 11:10:00,
2013-08-06 07:15:00,68.6,63.9,30.04,West,276,0.0,1.0,85,0.00,,---,0.00,VWS V14.01,2013-08-06 11:15:00,
2013-08-06 07:20:00,68.6,63.9,30.04,West,264,0.0,1.0,85,0.00,,---,0.00,VWS V14.01,2013-08-06 11:20:00,
2013-08-06 07:25:00,68.5,64.5,30.03,West,264,0.0,1.0,87,0.03,,---,0.03,VWS V14.01,2013-08-06 11:25:00,
2013-08-06 07:30:00,68.1,64.4,30.03,West,266,0.0,1.0,88,0.03,,---,0.03,VWS V14.01,2013-08-06 11:30:00,
2013-08-06 07:35:00,67.7,64.3,30.03,West,266,0.0,0.0,89,0.04,,---,0.04,VWS V14.01,2013-08-06 11:35:00,
2013-08-06 07:40:00,67.4,64.4,30.03,West,266,0.0,0.0,90,0.04,,---,0.04,VWS V14.01,2013-08-06 11:40:00,
2013-08-06 07:45:00,67.2,64.5,30.04,West,266,0.0,0.0,91,0.04,,---,0.04,VWS V14.01,2013-08-06 11:45:00,
2013-08-06 07:50:00,67.1,64.4,30.04,West,266,0.0,0.0,91,0.04,,---,0.04,VWS V14.01,2013-08-06 11:50:00,
2013-08-06 07:56:00,67.1,64.7,30.05,West,266,0.0,0.0,92,0.04,,---,0.04,VWS V14.01,2013-08-06 11:56:00,
2013-08-06 08:01:00,67.1,65.0,30.05,West,266,0.0,0.0,93,0.04,,---,0.04,VWS V14.01,2013-08-06 12:01:00,
2013-08-06 08:06:00,67.1,65.0,30.05,West,266,0.0,0.0,93,0.04,,---,0.04,VWS V14.01,2013-08-06 12:06:00,
2013-08-06 08:11:00,67.1,65.0,30.05,SSE,160,0.0,1.0,93,0.04,,---,0.04,VWS V14.01,2013-08-06 12:11:00,
2013-08-06 08:16:00,67.1,65.0,30.05,SSE,161,0.0,1.0,93,0.04,,---,0.04,VWS V14.01,2013-08-06 12:16:00,
2013-08-06 08:21:00,67.1,65.0,30.05,SSE,161,0.0,1.0,93,0.04,,---,0.04,VWS V14.01,2013-08-06 12:21:00,
2013-08-06 08:26:00,67.2,65.4,30.05,SSE,160,0.0,1.0,94,0.04,,---,0.04,VWS V14.01,2013-08-06 12:26:00,
2013-08-06 08:31:00,67.3,65.5,30.05,SSE,160,0.0,0.0,94,0.01,,---,0.04,VWS V14.01,2013-08-06 12:31:00,
2013-08-06 08:36:00,67.5,65.7,30.05,SSE,160,0.0,0.0,94,0.01,,---,0.04,VWS V14.01,2013-08-06 12:36:00,
2013-08-06 08:42:00,67.5,65.7,30.06,SSE,160,0.0,1.0,94,0.01,,---,0.04,VWS V14.01,2013-08-06 12:42:00,
2013-08-06 08:47:00,67.6,65.8,30.06,SSE,162,0.0,1.0,94,0.01,,---,0.04,VWS V14.01,2013-08-06 12:47:00,
2013-08-06 08:52:00,67.7,65.9,30.06,SSE,164,0.0,1.0,94,0.01,,---,0.04,VWS V14.01,2013-08-06 12:52:00,
2013-08-06 08:57:00,67.7,65.9,30.06,SSE,159,0.0,1.0,94,0.01,,---,0.04,VWS V14.01,2013-08-06 12:57:00,
2013-08-06 09:02:00,67.8,66.0,30.06,SSE,158,0.0,0.0,94,0.00,,---,0.04,VWS V14.01,2013-08-06 13:02:00,
2013-08-06 09:07:00,67.8,66.0,30.06,ESE,123,0.0,1.0,94,0.00,,---,0.04,VWS V14.01,2013-08-06 13:07:00,
2013-08-06 09:12:00,67.9,66.1,30.05,SE,124,0.0,1.0,94,0.00,,---,0.04,VWS V14.01,2013-08-06 13:12:00,
2013-08-06 09:17:00,67.8,65.7,30.05,SE,124,0.0,1.0,93,0.01,,---,0.05,VWS V14.01,2013-08-06 13:17:00,
2013-08-06 09:22:00,67.9,65.8,30.06,SSE,162,0.0,1.0,93,0.01,,---,0.05,VWS V14.01,2013-08-06 13:22:00,
2013-08-06 09:27:00,67.8,65.7,30.06,SSE,164,0.0,1.0,93,0.01,,---,0.05,VWS V14.01,2013-08-06 13:27:00,
2013-08-06 09:32:00,67.8,66.0,30.07,SSE,158,0.0,3.0,94,0.01,,---,0.05,VWS V14.01,2013-08-06 13:32:00,
2013-08-06 09:37:00,67.7,65.6,30.07,South,169,0.0,3.0,93,0.01,,---,0.05,VWS V14.01,2013-08-06 13:37:00,
2013-08-06 09:42:00,67.7,65.6,30.06,WSW,240,1.0,3.0,93,0.01,,---,0.05,VWS V14.01,2013-08-06 13:42:00,
2013-08-06 09:47:00,67.6,65.5,30.06,SSE,155,0.0,3.0,93,0.01,,---,0.05,VWS V14.01,2013-08-06 13:47:00,
2013-08-06 09:52:00,67.9,66.1,30.07,SE,146,0.0,3.0,94,0.01,,---,0.05,VWS V14.01,2013-08-06 13:52:00,
2013-08-06 09:57:00,67.9,66.1,30.07,SE,146,0.0,3.0,94,0.01,,---,0.05,VWS V14.01,2013-08-06 13:57:00,
2013-08-06 10:02:00,67.9,65.8,30.07,SE,145,0.0,0.0,93,0.01,,---,0.05,VWS V14.01,2013-08-06 14:02:00,
2013-08-06 10:07:00,67.9,65.8,30.07,SE,146,0.0,0.0,93,0.01,,---,0.05,VWS V14.01,2013-08-06 14:07:00,
2013-08-06 10:12:00,67.8,65.7,30.07,West,259,0.0,2.0,93,0.01,,---,0.05,VWS V14.01,2013-08-06 14:12:00,
2013-08-06 10:17:00,67.7,65.6,30.07,West,262,0.0,2.0,93,0.01,,---,0.05,VWS V14.01,2013-08-06 14:17:00,
2013-08-06 10:22:00,67.6,65.5,30.07,South,184,1.0,2.0,93,0.01,,---,0.05,VWS V14.01,2013-08-06 14:22:00,
2013-08-06 10:28:00,67.7,65.6,30.07,SE,132,0.0,2.0,93,0.01,,---,0.05,VWS V14.01,2013-08-06 14:28:00,
2013-08-06 10:33:00,67.7,65.6,30.06,SE,142,0.0,2.0,93,0.00,,---,0.05,VWS V14.01,2013-08-06 14:33:00,
2013-08-06 10:38:00,67.9,65.8,30.06,SSE,165,0.0,2.0,93,0.00,,---,0.05,VWS V14.01,2013-08-06 14:38:00,
2013-08-06 10:43:00,68.0,65.9,30.06,SSE,163,0.0,2.0,93,0.00,,---,0.05,VWS V14.01,2013-08-06 14:43:00,
2013-08-06 10:48:00,68.1,65.7,30.06,SE,146,0.0,2.0,92,0.00,,---,0.05,VWS V14.01,2013-08-06 14:48:00,
2013-08-06 10:53:00,68.2,65.8,30.06,ESE,111,0.0,3.0,92,0.00,,---,0.05,VWS V14.01,2013-08-06 14:53:00,
2013-08-06 10:58:00,68.3,65.9,30.07,SSE,155,1.0,3.0,92,0.00,,---,0.05,VWS V14.01,2013-08-06 14:58:00,
2013-08-06 11:03:00,68.3,65.9,30.07,SSE,155,0.0,0.0,92,0.00,,---,0.05,VWS V14.01,2013-08-06 15:03:00,
2013-08-06 11:08:00,68.3,65.9,30.07,SSE,148,0.0,1.0,92,0.00,,---,0.05,VWS V14.01,2013-08-06 15:08:00,
2013-08-06 11:13:00,68.4,66.0,30.07,SSE,167,0.0,1.0,92,0.00,,---,0.05,VWS V14.01,2013-08-06 15:13:00,
2013-08-06 11:18:00,68.4,66.0,30.07,SE,135,0.0,2.0,92,0.00,,---,0.05,VWS V14.01,2013-08-06 15:18:00,
2013-08-06 11:23:00,68.4,66.0,30.07,SE,139,0.0,2.0,92,0.00,,---,0.05,VWS V14.01,2013-08-06 15:23:00,
2013-08-06 11:28:00,68.3,65.9,30.07,ESE,105,0.0,3.0,92,0.00,,---,0.05,VWS V14.01,2013-08-06 15:28:00,
2013-08-06 11:33:00,68.2,65.5,30.07,SE,134,0.0,1.0,91,0.00,,---,0.05,VWS V14.01,2013-08-06 15:33:00,
2013-08-06 11:38:00,68.3,65.9,30.07,SSE,155,0.0,1.0,92,0.00,,---,0.05,VWS V14.01,2013-08-06 15:38:00,
2013-08-06 11:43:00,68.4,66.0,30.07,SSE,155,0.0,1.0,92,0.00,,---,0.05,VWS V14.01,2013-08-06 15:43:00,
2013-08-06 11:48:00,68.6,66.2,30.07,SSE,159,0.0,1.0,92,0.00,,---,0.05,VWS V14.01,2013-08-06 15:48:00,
2013-08-06 11:53:00,68.6,66.2,30.07,NW,307,0.0,1.0,92,0.00,,---,0.05,VWS V14.01,2013-08-06 15:53:00,
2013-08-06 11:59:00,68.6,66.2,30.07,WSW,253,0.0,1.0,92,0.00,,---,0.05,VWS V14.01,2013-08-06 15:59:00,
2013-08-06 12:04:00,68.8,66.4,30.07,West,261,0.0,1.0,92,0.00,,---,0.05,VWS V14.01,2013-08-06 16:04:00,
2013-08-06 12:09:00,68.9,66.5,30.07,SE,128,0.0,2.0,92,0.00,,---,0.05,VWS V14.01,2013-08-06 16:09:00,
2013-08-06 12:14:00,68.9,66.2,30.07,WSW,239,0.0,2.0,91,0.00,,---,0.05,VWS V14.01,2013-08-06 16:14:00,
2013-08-06 12:19:00,68.9,66.2,30.07,WNW,284,0.0,2.0,91,0.00,,---,0.05,VWS V14.01,2013-08-06 16:19:00,
2013-08-06 12:24:00,68.9,66.2,30.07,ESE,103,0.0,2.0,91,0.00,,---,0.05,VWS V14.01,2013-08-06 16:24:00,
2013-08-06 12:29:00,69.0,66.3,30.07,ESE,117,0.0,2.0,91,0.00,,---,0.05,VWS V14.01,2013-08-06 16:29:00,
2013-08-06 12:34:00,69.1,66.4,30.07,ESE,117,0.0,2.0,91,0.00,,---,0.05,VWS V14.01,2013-08-06 16:34:00,
2013-08-06 12:39:00,69.0,65.9,30.07,SSW,210,0.0,2.0,90,0.00,,---,0.05,VWS V14.01,2013-08-06 16:39:00,
2013-08-06 12:44:00,69.0,65.9,30.07,SE,141,0.0,3.0,90,0.00,,---,0.05,VWS V14.01,2013-08-06 16:44:00,
2013-08-06 12:49:00,69.2,66.5,30.07,SE,142,0.0,3.0,91,0.00,,---,0.05,VWS V14.01,2013-08-06 16:49:00,
2013-08-06 12:54:00,69.3,66.2,30.07,SE,142,0.0,3.0,90,0.00,,---,0.05,VWS V14.01,2013-08-06 16:54:00,
2013-08-06 12:59:00,69.4,66.3,30.07,SSW,201,0.0,3.0,90,0.00,,---,0.05,VWS V14.01,2013-08-06 16:59:00,
2013-08-06 13:04:00,69.7,66.6,30.07,South,177,0.0,0.0,90,0.00,,---,0.05,VWS V14.01,2013-08-06 17:04:00,
2013-08-06 13:09:00,69.9,66.8,30.07,South,177,0.0,0.0,90,0.00,,---,0.05,VWS V14.01,2013-08-06 17:09:00,
2013-08-06 13:15:00,70.0,66.3,30.07,SSE,158,0.0,2.0,88,0.00,,---,0.05,VWS V14.01,2013-08-06 17:15:00,
2013-08-06 13:20:00,70.1,66.4,30.07,SSE,158,0.0,2.0,88,0.00,,---,0.05,VWS V14.01,2013-08-06 17:20:00,
2013-08-06 13:25:00,70.1,66.1,30.07,WNW,287,0.0,2.0,87,0.00,,---,0.05,VWS V14.01,2013-08-06 17:25:00,
2013-08-06 13:27:00,70.2,66.5,30.07,WNW,286,0.0,2.0,88,0.00,,---,0.05,VWS V14.01,2013-08-06 17:27:00,
2013-08-06 13:32:00,70.2,66.5,30.07,West,262,0.0,0.0,88,0.00,,---,0.05,VWS V14.01,2013-08-06 17:32:00,
2013-08-06 13:37:00,70.3,66.6,30.07,West,261,0.0,0.0,88,0.00,,---,0.05,VWS V14.01,2013-08-06 17:37:00,
2013-08-06 13:42:00,70.5,66.8,30.07,West,262,0.0,1.0,88,0.00,,---,0.05,VWS V14.01,2013-08-06 17:42:00,
2013-08-06 13:47:00,70.6,66.6,30.07,WNW,290,0.0,1.0,87,0.00,,---,0.05,VWS V14.01,2013-08-06 17:47:00,
2013-08-06 13:52:00,70.5,66.1,30.08,SE,142,0.0,3.0,86,0.00,,---,0.05,VWS V14.01,2013-08-06 17:52:00,
2013-08-06 13:57:00,70.3,65.9,30.07,SSE,155,0.0,3.0,86,0.00,,---,0.05,VWS V14.01,2013-08-06 17:57:00,
2013-08-06 14:02:00,70.4,66.3,30.07,SSE,155,0.0,0.0,87,0.00,,---,0.05,VWS V14.01,2013-08-06 18:02:00,
2013-08-06 14:07:00,70.5,66.8,30.07,SSE,155,0.0,0.0,88,0.00,,---,0.05,VWS V14.01,2013-08-06 18:07:00,
2013-08-06 14:12:00,70.4,66.3,30.07,SSW,204,0.0,2.0,87,0.00,,---,0.05,VWS V14.01,2013-08-06 18:12:00,
2013-08-06 14:17:00,70.4,66.3,30.07,SSW,207,0.0,2.0,87,0.00,,---,0.05,VWS V14.01,2013-08-06 18:17:00,
2013-08-06 14:22:00,70.3,66.2,30.07,SSW,207,0.0,2.0,87,0.00,,---,0.05,VWS V14.01,2013-08-06 18:22:00,
2013-08-06 14:27:00,70.4,66.3,30.07,WNW,283,0.0,2.0,87,0.00,,---,0.05,VWS V14.01,2013-08-06 18:27:00,
2013-08-06 14:33:00,70.5,66.4,30.07,WNW,285,0.0,0.0,87,0.00,,---,0.05,VWS V14.01,2013-08-06 18:33:00,
2013-08-06 14:38:00,70.6,66.2,30.07,SE,126,0.0,2.0,86,0.00,,---,0.05,VWS V14.01,2013-08-06 18:38:00,
2013-08-06 14:43:00,70.8,66.4,30.07,West,267,0.0,2.0,86,0.00,,---,0.05,VWS V14.01,2013-08-06 18:43:00,
2013-08-06 14:48:00,70.9,66.2,30.07,South,169,0.0,2.0,85,0.00,,---,0.05,VWS V14.01,2013-08-06 18:48:00,
2013-08-06 14:53:00,71.2,66.8,30.07,South,169,0.0,2.0,86,0.00,,---,0.05,VWS V14.01,2013-08-06 18:53:00,
2013-08-06 14:58:00,71.4,66.7,30.07,West,274,1.0,2.0,85,0.00,,---,0.05,VWS V14.01,2013-08-06 18:58:00,
2013-08-06 15:03:00,71.8,67.1,30.07,West,267,0.0,0.0,85,0.00,,---,0.05,VWS V14.01,2013-08-06 19:03:00,
2013-08-06 15:08:00,72.3,67.2,30.07,SE,146,0.0,1.0,84,0.00,,---,0.05,VWS V14.01,2013-08-06 19:08:00,
2013-08-06 15:13:00,72.6,67.5,30.07,SE,145,0.0,1.0,84,0.00,,---,0.05,VWS V14.01,2013-08-06 19:13:00,
2013-08-06 15:18:00,73.0,67.5,30.07,SE,143,0.0,1.0,83,0.00,,---,0.05,VWS V14.01,2013-08-06 19:18:00,
2013-08-06 15:23:00,72.9,67.1,30.07,West,263,0.0,2.0,82,0.00,,---,0.05,VWS V14.01,2013-08-06 19:23:00,
2013-08-06 15:28:00,72.8,67.0,30.07,West,263,1.0,2.0,82,0.00,,---,0.05,VWS V14.01,2013-08-06 19:28:00,
2013-08-06 15:33:00,72.6,66.8,30.06,West,276,0.0,1.0,82,0.00,,---,0.05,VWS V14.01,2013-08-06 19:33:00,
2013-08-06 15:38:00,72.6,67.2,30.06,West,276,0.0,1.0,83,0.00,,---,0.05,VWS V14.01,2013-08-06 19:38:00,
2013-08-06 15:43:00,72.7,67.2,30.07,SW,221,0.0,1.0,83,0.00,,---,0.05,VWS V14.01,2013-08-06 19:43:00,
2013-08-06 15:48:00,72.6,66.8,30.06,South,177,0.0,1.0,82,0.00,,---,0.05,VWS V14.01,2013-08-06 19:48:00,
2013-08-06 15:53:00,72.8,67.7,30.06,South,177,0.0,1.0,84,0.00,,---,0.05,VWS V14.01,2013-08-06 19:53:00,
2013-08-06 15:59:00,72.8,67.3,30.07,South,183,0.0,1.0,83,0.00,,---,0.05,VWS V14.01,2013-08-06 19:59:00,
2013-08-06 16:04:00,72.7,67.2,30.07,SSW,212,0.0,0.0,83,0.00,,---,0.05,VWS V14.01,2013-08-06 20:04:00,
2013-08-06 16:09:00,72.6,67.2,30.07,SSW,212,0.0,0.0,83,0.00,,---,0.05,VWS V14.01,2013-08-06 20:09:00,
2013-08-06 16:14:00,72.5,67.1,30.07,SE,146,0.0,1.0,83,0.00,,---,0.05,VWS V14.01,2013-08-06 20:14:00,
2013-08-06 16:19:00,72.4,66.9,30.07,SE,145,0.0,1.0,83,0.00,,---,0.05,VWS V14.01,2013-08-06 20:19:00,
2013-08-06 16:24:00,72.3,67.2,30.07,SE,145,0.0,1.0,84,0.00,,---,0.05,VWS V14.01,2013-08-06 20:24:00,
2013-08-06 16:29:00,72.1,67.3,30.07,SE,146,0.0,1.0,85,0.00,,---,0.05,VWS V14.01,2013-08-06 20:29:00,
2013-08-06 16:32:00,72.0,67.2,30.07,SE,146,0.0,0.0,85,0.00,,---,0.05,VWS V14.01,2013-08-06 20:32:00,
2013-08-06 16:37:00,71.8,67.1,30.07,SE,146,0.0,1.0,85,0.00,,---,0.05,VWS V14.01,2013-08-06 20:37:00,
2013-08-06 16:42:00,71.7,67.3,30.08,SSE,148,0.0,1.0,86,0.00,,---,0.05,VWS V14.01,2013-08-06 20:42:00,
2013-08-06 16:47:00,71.6,67.5,30.08,SSE,148,0.0,1.0,87,0.00,,---,0.05,VWS V14.01,2013-08-06 20:47:00,
2013-08-06 16:52:00,71.4,67.7,30.08,SSE,148,0.0,1.0,88,0.00,,---,0.05,VWS V14.01,2013-08-06 20:52:00,
2013-08-06 16:57:00,71.2,67.5,30.08,SSE,158,0.0,1.0,88,0.00,,---,0.05,VWS V14.01,2013-08-06 20:57:00,
2013-08-06 17:02:00,71.1,67.4,30.08,SSE,158,0.0,0.0,88,0.00,,---,0.05,VWS V14.01,2013-08-06 21:02:00,
2013-08-06 17:07:00,71.0,67.3,30.08,SSE,158,0.0,0.0,88,0.00,,---,0.05,VWS V14.01,2013-08-06 21:07:00,
2013-08-06 17:13:00,70.8,67.1,30.08,SSE,158,0.0,0.0,88,0.00,,---,0.05,VWS V14.01,2013-08-06 21:13:00,
2013-08-06 17:18:00,70.7,67.3,30.08,SSE,158,0.0,0.0,89,0.00,,---,0.05,VWS V14.01,2013-08-06 21:18:00,
2013-08-06 17:23:00,70.7,67.3,30.08,SSE,158,0.0,0.0,89,0.00,,---,0.05,VWS V14.01,2013-08-06 21:23:00,
2013-08-06 17:28:00,70.7,67.6,30.08,SSE,158,0.0,0.0,90,0.00,,---,0.05,VWS V14.01,2013-08-06 21:28:00,
2013-08-06 17:33:00,70.8,67.7,30.07,SSE,158,0.0,0.0,90,0.00,,---,0.05,VWS V14.01,2013-08-06 21:33:00,
2013-08-06 17:38:00,70.8,67.7,30.07,SSE,158,0.0,0.0,90,0.00,,---,0.05,VWS V14.01,2013-08-06 21:38:00,
2013-08-06 17:43:00,70.9,67.5,30.07,SSE,158,0.0,0.0,89,0.00,,---,0.05,VWS V14.01,2013-08-06 21:43:00,
2013-08-06 17:48:00,70.9,67.5,30.07,SSE,158,0.0,0.0,89,0.00,,---,0.05,VWS V14.01,2013-08-06 21:48:00,
2013-08-06 17:53:00,70.9,67.5,30.07,SSE,158,0.0,0.0,89,0.00,,---,0.05,VWS V14.01,2013-08-06 21:53:00,
2013-08-06 17:59:00,70.8,67.4,30.07,SSE,158,0.0,0.0,89,0.00,,---,0.05,VWS V14.01,2013-08-06 21:59:00,
2013-08-06 18:04:00,70.8,67.4,30.07,SSE,158,0.0,0.0,89,0.00,,---,0.05,VWS V14.01,2013-08-06 22:04:00,
2013-08-06 18:09:00,70.8,67.4,30.07,SSE,158,0.0,0.0,89,0.00,,---,0.05,VWS V14.01,2013-08-06 22:09:00,
2013-08-06 18:14:00,70.7,67.3,30.07,SSE,158,0.0,0.0,89,0.00,,---,0.05,VWS V14.01,2013-08-06 22:14:00,
2013-08-06 18:19:00,70.7,67.6,30.07,SSE,158,0.0,0.0,90,0.00,,---,0.05,VWS V14.01,2013-08-06 22:19:00,
2013-08-06 18:24:00,70.6,67.5,30.07,SSE,158,0.0,0.0,90,0.00,,---,0.05,VWS V14.01,2013-08-06 22:24:00,
2013-08-06 18:29:00,70.5,67.4,30.07,WSW,245,0.0,1.0,90,0.00,,---,0.05,VWS V14.01,2013-08-06 22:29:00,
2013-08-06 18:34:00,70.6,67.5,30.07,WSW,245,0.0,0.0,90,0.00,,---,0.05,VWS V14.01,2013-08-06 22:34:00,
2013-08-06 18:39:00,70.7,67.6,30.06,WSW,245,0.0,1.0,90,0.00,,---,0.05,VWS V14.01,2013-08-06 22:39:00,
2013-08-06 18:44:00,70.7,67.6,30.06,SW,231,0.0,1.0,90,0.00,,---,0.05,VWS V14.01,2013-08-06 22:44:00,
2013-08-06 18:49:00,70.8,67.4,30.06,SW,232,0.0,1.0,89,0.00,,---,0.05,VWS V14.01,2013-08-06 22:49:00,
2013-08-06 18:54:00,70.8,67.1,30.06,SE,142,0.0,2.0,88,0.00,,---,0.05,VWS V14.01,2013-08-06 22:54:00,
2013-08-06 19:00:00,70.9,67.2,30.06,SE,142,0.0,2.0,88,0.00,,---,0.05,VWS V14.01,2013-08-06 23:00:00,
2013-08-06 19:05:00,71.0,67.3,30.06,SE,142,0.0,0.0,88,0.00,,---,0.05,VWS V14.01,2013-08-06 23:05:00,
2013-08-06 19:10:00,71.1,67.4,30.06,SE,142,0.0,0.0,88,0.00,,---,0.05,VWS V14.01,2013-08-06 23:10:00,
2013-08-06 19:15:00,71.1,67.4,30.07,SE,142,0.0,0.0,88,0.00,,---,0.05,VWS V14.01,2013-08-06 23:15:00,
2013-08-06 19:20:00,71.0,67.3,30.07,SSE,162,0.0,2.0,88,0.00,,---,0.05,VWS V14.01,2013-08-06 23:20:00,
2013-08-06 19:25:00,70.9,67.2,30.07,ESE,117,0.0,2.0,88,0.00,,---,0.05,VWS V14.01,2013-08-06 23:25:00,
2013-08-06 19:30:00,70.8,67.1,30.07,SE,146,0.0,2.0,88,0.00,,---,0.05,VWS V14.01,2013-08-06 23:30:00,
2013-08-06 19:35:00,70.8,67.1,30.07,SSE,158,1.0,1.0,88,0.00,,---,0.05,VWS V14.01,2013-08-06 23:35:00,
2013-08-06 19:40:00,70.6,66.9,30.07,South,173,0.0,1.0,88,0.00,,---,0.05,VWS V14.01,2013-08-06 23:40:00,
2013-08-06 19:45:00,70.5,66.8,30.07,South,174,0.0,1.0,88,0.00,,---,0.05,VWS V14.01,2013-08-06 23:45:00,
2013-08-06 19:51:00,70.4,66.7,30.07,South,174,0.0,1.0,88,0.00,,---,0.05,VWS V14.01,2013-08-06 23:51:00,
2013-08-06 19:56:00,70.2,66.5,30.07,South,174,0.0,1.0,88,0.00,,---,0.05,VWS V14.01,2013-08-06 23:56:00,
2013-08-06 20:01:00,70.1,66.4,30.07,South,175,0.0,1.0,88,0.00,,---,0.05,VWS V14.01,2013-08-07 00:01:00,
2013-08-06 20:06:00,70.0,66.3,30.08,South,174,0.0,0.0,88,0.00,,---,0.05,VWS V14.01,2013-08-07 00:06:00,
2013-08-06 20:11:00,70.0,66.6,30.08,South,175,0.0,0.0,89,0.00,,---,0.05,VWS V14.01,2013-08-07 00:11:00,
2013-08-06 20:16:00,70.0,66.6,30.08,South,175,0.0,0.0,89,0.00,,---,0.05,VWS V14.01,2013-08-07 00:16:00,
2013-08-06 20:21:00,70.0,66.6,30.08,South,191,0.0,1.0,89,0.00,,---,0.05,VWS V14.01,2013-08-07 00:21:00,
2013-08-06 20:26:00,70.0,66.6,30.08,SE,132,0.0,1.0,89,0.00,,---,0.05,VWS V14.01,2013-08-07 00:26:00,
2013-08-06 20:31:00,70.0,66.6,30.08,SSE,152,0.0,0.0,89,0.00,,---,0.05,VWS V14.01,2013-08-07 00:31:00,
2013-08-06 20:36:00,70.0,66.3,30.08,SE,140,0.0,1.0,88,0.00,,---,0.05,VWS V14.01,2013-08-07 00:36:00,
2013-08-06 20:41:00,70.0,66.3,30.08,SE,139,0.0,1.0,88,0.00,,---,0.05,VWS V14.01,2013-08-07 00:41:00,
2013-08-06 20:46:00,70.0,66.3,30.08,SE,139,0.0,1.0,88,0.00,,---,0.05,VWS V14.01,2013-08-07 00:46:00,
2013-08-06 20:51:00,70.0,66.3,30.08,SE,139,0.0,1.0,88,0.00,,---,0.05,VWS V14.01,2013-08-07 00:51:00,
2013-08-06 20:56:00,70.0,66.3,30.09,SE,141,0.0,1.0,88,0.00,,---,0.05,VWS V14.01,2013-08-07 00:56:00,
2013-08-06 21:02:00,70.1,66.4,30.09,ESE,103,1.0,1.0,88,0.00,,---,0.05,VWS V14.01,2013-08-07 01:02:00,
2013-08-06 21:07:00,70.0,66.6,30.09,ESE,120,0.0,1.0,89,0.00,,---,0.05,VWS V14.01,2013-08-07 01:07:00,
2013-08-06 21:12:00,69.9,66.5,30.09,SSW,208,0.0,2.0,89,0.00,,---,0.05,VWS V14.01,2013-08-07 01:12:00,
2013-08-06 21:17:00,69.9,66.5,30.09,SSW,207,0.0,2.0,89,0.00,,---,0.05,VWS V14.01,2013-08-07 01:17:00,
2013-08-06 21:22:00,69.8,66.4,30.09,SSW,207,0.0,2.0,89,0.00,,---,0.05,VWS V14.01,2013-08-07 01:22:00,
2013-08-06 21:27:00,69.7,66.6,30.09,SSW,207,0.0,2.0,90,0.00,,---,0.05,VWS V14.01,2013-08-07 01:27:00,
2013-08-06 21:32:00,69.7,66.6,30.09,SSW,207,0.0,0.0,90,0.00,,---,0.05,VWS V14.01,2013-08-07 01:32:00,
2013-08-06 21:37:00,69.6,66.5,30.09,SSW,207,0.0,1.0,90,0.00,,---,0.05,VWS V14.01,2013-08-07 01:37:00,
2013-08-06 21:42:00,69.6,66.5,30.09,SSW,207,0.0,1.0,90,0.00,,---,0.05,VWS V14.01,2013-08-07 01:42:00,
2013-08-06 21:47:00,69.6,66.5,30.09,SSW,208,0.0,1.0,90,0.00,,---,0.05,VWS V14.01,2013-08-07 01:47:00,
2013-08-06 21:52:00,69.6,66.5,30.09,SSW,209,0.0,1.0,90,0.00,,---,0.05,VWS V14.01,2013-08-07 01:52:00,
2013-08-06 21:57:00,69.6,66.5,30.09,SSW,207,0.0,1.0,90,0.00,,---,0.05,VWS V14.01,2013-08-07 01:57:00,
2013-08-06 22:02:00,69.6,66.5,30.09,SSW,195,0.0,0.0,90,0.00,,---,0.05,VWS V14.01,2013-08-07 02:02:00,
2013-08-06 22:07:00,69.6,66.5,30.09,SSW,195,0.0,0.0,90,0.00,,---,0.05,VWS V14.01,2013-08-07 02:07:00,
2013-08-06 22:13:00,69.7,66.6,30.09,SSW,195,0.0,0.0,90,0.00,,---,0.05,VWS V14.01,2013-08-07 02:13:00,
2013-08-06 22:18:00,69.6,66.5,30.09,SSW,195,0.0,1.0,90,0.00,,---,0.05,VWS V14.01,2013-08-07 02:18:00,
2013-08-06 22:23:00,69.6,66.5,30.09,SSW,196,0.0,1.0,90,0.00,,---,0.05,VWS V14.01,2013-08-07 02:23:00,
2013-08-06 22:28:00,69.7,66.3,30.09,SSW,196,0.0,1.0,89,0.00,,---,0.05,VWS V14.01,2013-08-07 02:28:00,
2013-08-06 22:33:00,69.7,66.3,30.09,SSW,208,0.0,0.0,89,0.00,,---,0.05,VWS V14.01,2013-08-07 02:33:00,
2013-08-06 22:38:00,69.7,66.3,30.09,SSW,208,0.0,0.0,89,0.00,,---,0.05,VWS V14.01,2013-08-07 02:38:00,
2013-08-06 22:43:00,69.7,66.3,30.10,SSW,208,0.0,0.0,89,0.00,,---,0.05,VWS V14.01,2013-08-07 02:43:00,
2013-08-06 22:48:00,69.7,66.3,30.10,SSW,208,0.0,0.0,89,0.00,,---,0.05,VWS V14.01,2013-08-07 02:48:00,
2013-08-06 22:53:00,69.6,66.2,30.10,South,169,1.0,1.0,89,0.00,,---,0.05,VWS V14.01,2013-08-07 02:53:00,
2013-08-06 22:58:00,69.6,66.2,30.10,South,169,0.0,1.0,89,0.00,,---,0.05,VWS V14.01,2013-08-07 02:58:00,
2013-08-06 23:03:00,69.7,66.3,30.10,South,174,0.0,0.0,89,0.00,,---,0.05,VWS V14.01,2013-08-07 03:03:00,
2013-08-06 23:08:00,69.7,66.3,30.10,South,176,0.0,0.0,89,0.00,,---,0.05,VWS V14.01,2013-08-07 03:08:00,
2013-08-06 23:13:00,69.7,66.3,30.10,South,176,0.0,0.0,89,0.00,,---,0.05,VWS V14.01,2013-08-07 03:13:00,
2013-08-06 23:19:00,69.7,66.3,30.10,South,174,0.0,0.0,89,0.00,,---,0.05,VWS V14.01,2013-08-07 03:19:00,
2013-08-06 23:24:00,69.7,66.3,30.10,South,176,0.0,0.0,89,0.00,,---,0.05,VWS V14.01,2013-08-07 03:24:00,
2013-08-06 23:29:00,69.7,66.3,30.10,South,173,0.0,0.0,89,0.00,,---,0.05,VWS V14.01,2013-08-07 03:29:00,
2013-08-06 23:34:00,69.7,66.3,30.10,South,173,0.0,0.0,89,0.00,,---,0.05,VWS V14.01,2013-08-07 03:34:00,
2013-08-06 23:39:00,69.7,66.3,30.10,SSE,151,0.0,1.0,89,0.00,,---,0.05,VWS V14.01,2013-08-07 03:39:00,
2013-08-06 23:40:00,69.7,66.3,30.10,SSE,151,0.0,1.0,89,0.00,,---,0.05,VWS V14.01,2013-08-07 03:40:00,
2013-08-06 23:45:00,69.7,66.3,30.10,SSE,151,0.0,1.0,89,0.00,,---,0.05,VWS V14.01,2013-08-07 03:45:00,
2013-08-06 23:50:00,69.7,66.3,30.10,SSE,151,0.0,1.0,89,0.00,,---,0.05,VWS V14.01,2013-08-07 03:50:00,
2013-08-06 23:55:00,69.7,66.3,30.10,SSE,167,0.0,1.0,89,0.00,,---,0.05,VWS V14.01,2013-08-07 03:55:00,